• Em Portugal
  • Lista de países
  • Para 7 dias
  • Temperatura da água
  • Mapas de satélite
  • Mapa do tempo
  • Widgets de tempo
  • user-avatar
    Iniciar Sessão

    Previsão horária em Monaco

    Hoje, 21 Fevereiro, Quarta-feira

    Tempo Temperatura Precipitação Vento Pressão Humidade
    00:00 +3°C° 0,1 mm 4 m/s 746 mmHg 64%
    01:00 +2°C° 0,2 mm 5 m/s 746 mmHg 67%
    02:00 +2°C° 0,2 mm 6 m/s 746 mmHg 69%
    03:00 +2°C° 0,2 mm 6 m/s 746 mmHg 72%
    04:00 +2°C° 0,1 mm 6 m/s 746 mmHg 72%
    05:00 +2°C° 0,1 mm 6 m/s 746 mmHg 71%
    06:00 +2°C° 0,1 mm 7 m/s 746 mmHg 71%
    07:00 +3°C° 0 mm 7 m/s 746 mmHg 67%
    08:00 +4°C° 0 mm 7 m/s 746 mmHg 62%
    09:00 +4°C° 0 mm 7 m/s 746 mmHg 58%
    10:00 +5°C° 0 mm 7 m/s 746 mmHg 54%
    11:00 +6°C° 0 mm 7 m/s 747 mmHg 51%
    12:00 +8°C° 0 mm 7 m/s 747 mmHg 47%
    13:00 +8°C° 0 mm 7 m/s 746 mmHg 47%
    14:00 +8°C° 0 mm 6 m/s 746 mmHg 46%
    15:00 +8°C° 0 mm 6 m/s 746 mmHg 45%
    16:00 +5°C° 0 mm 6 m/s 746 mmHg 49%
    17:00 +5°C° 0 mm 5 m/s 746 mmHg 54%
    18:00 +3°C° 0 mm 5 m/s 746 mmHg 58%
    19:00 +3°C° 0,1 mm 5 m/s 746 mmHg 59%
    20:00 +3°C° 0,1 mm 5 m/s 746 mmHg 60%
    21:00 +3°C° 0,1 mm 5 m/s 746 mmHg 61%
    22:00 +3°C° 0 mm 5 m/s 746 mmHg 60%
    23:00 +3°C° 0 mm 5 m/s 746 mmHg 59%

    Amanhã, 22 Fevereiro, Quinta-feira

    Tempo Temperatura Precipitação Vento Pressão Humidade
    00:00 +3°C° 0 mm 5 m/s 745 mmHg 58%
    01:00 +3°C° 0 mm 5 m/s 745 mmHg 57%
    02:00 +3°C° 0 mm 5 m/s 745 mmHg 55%
    03:00 +2°C° 0 mm 5 m/s 744 mmHg 53%
    04:00 +2°C° 0 mm 5 m/s 744 mmHg 55%
    05:00 +2°C° 0 mm 5 m/s 744 mmHg 56%
    06:00 +2°C° 0 mm 5 m/s 743 mmHg 57%
    07:00 +3°C° 0,1 mm 5 m/s 743 mmHg 57%
    08:00 +5°C° 0,1 mm 5 m/s 744 mmHg 57%
    09:00 +6°C° 0,1 mm 5 m/s 744 mmHg 57%
    10:00 +6°C° 0,1 mm 5 m/s 744 mmHg 57%
    11:00 +7°C° 0,1 mm 5 m/s 744 mmHg 57%
    12:00 +7°C° 0,1 mm 5 m/s 744 mmHg 57%
    13:00 +7°C° 0,1 mm 5 m/s 744 mmHg 58%
    14:00 +6°C° 0,1 mm 5 m/s 743 mmHg 60%
    15:00 +6°C° 0,1 mm 5 m/s 743 mmHg 62%
    16:00 +6°C° 0,1 mm 5 m/s 744 mmHg 65%
    17:00 +5°C° 0,1 mm 5 m/s 744 mmHg 69%
    18:00 +3°C° 0,1 mm 5 m/s 744 mmHg 72%
    19:00 +3°C° 0,3 mm 5 m/s 744 mmHg 72%
    20:00 +3°C° 0,3 mm 5 m/s 745 mmHg 73%
    21:00 +4°C° 0,3 mm 4 m/s 745 mmHg 73%
    22:00 +4°C° 0,2 mm 4 m/s 745 mmHg 73%
    23:00 +4°C° 0,2 mm 4 m/s 745 mmHg 73%

    Depois de amanhã, 23 Fevereiro, Sexta-feira

    Tempo Temperatura Precipitação Vento Pressão Humidade
    00:00 +4°C° 0,2 mm 4 m/s 745 mmHg 72%
    01:00 +4°C° 0,1 mm 4 m/s 745 mmHg 72%
    02:00 +2°C° 0,1 mm 5 m/s 744 mmHg 72%
    03:00 +2°C° 0,1 mm 5 m/s 744 mmHg 72%
    04:00 +2°C° 0 mm 5 m/s 744 mmHg 71%
    05:00 +2°C° 0 mm 5 m/s 744 mmHg 71%
    06:00 +2°C° 0 mm 5 m/s 744 mmHg 71%
    07:00 +3°C° 0,1 mm 5 m/s 745 mmHg 67%
    08:00 +6°C° 0,1 mm 4 m/s 745 mmHg 64%
    09:00 +7°C° 0,1 mm 4 m/s 745 mmHg 60%
    10:00 +7°C° 0,1 mm 4 m/s 745 mmHg 61%
    11:00 +8°C° 0,1 mm 4 m/s 745 mmHg 61%
    12:00 +8°C° 0,1 mm 5 m/s 746 mmHg 61%
    13:00 +8°C° 0,1 mm 5 m/s 746 mmHg 63%
    14:00 +8°C° 0,1 mm 5 m/s 746 mmHg 64%
    15:00 +7°C° 0,1 mm 5 m/s 746 mmHg 65%
    16:00 +6°C° 0,1 mm 5 m/s 746 mmHg 68%
    17:00 +6°C° 0,1 mm 5 m/s 746 mmHg 71%
    18:00 +5°C° 0,1 mm 4 m/s 747 mmHg 74%
    19:00 +5°C° 0 mm 4 m/s 747 mmHg 74%
    20:00 +4°C° 0 mm 4 m/s 747 mmHg 74%
    21:00 +4°C° 0 mm 4 m/s 748 mmHg 74%
    22:00 +4°C° 0 mm 4 m/s 748 mmHg 74%
    23:00 +4°C° 0 mm 4 m/s 747 mmHg 73%

    24 Fevereiro, Sábado

    Tempo Temperatura Precipitação Vento Pressão Humidade
    00:00 +3°C° 0 mm 5 m/s 747 mmHg 73%
    01:00 +4°C° 0,1 mm 4 m/s 747 mmHg 73%
    02:00 +4°C° 0,1 mm 4 m/s 747 mmHg 73%
    03:00 +5°C° 0,1 mm 4 m/s 746 mmHg 73%
    04:00 +5°C° 0,6 mm 4 m/s 746 mmHg 73%
    05:00 +5°C° 0,6 mm 4 m/s 746 mmHg 74%
    06:00 +5°C° 0,6 mm 4 m/s 746 mmHg 74%
    07:00 +6°C° 1,1 mm 4 m/s 747 mmHg 74%
    08:00 +7°C° 1,1 mm 3 m/s 747 mmHg 74%
    09:00 +8°C° 1,1 mm 3 m/s 747 mmHg 73%
    10:00 +8°C° 1,3 mm 3 m/s 747 mmHg 73%
    11:00 +7°C° 1,3 mm 4 m/s 747 mmHg 73%
    12:00 +8°C° 1,3 mm 4 m/s 747 mmHg 73%
    13:00 +8°C° 0,9 mm 4 m/s 747 mmHg 74%
    14:00 +7°C° 0,9 mm 4 m/s 747 mmHg 75%
    15:00 +7°C° 0,9 mm 4 m/s 747 mmHg 76%
    16:00 +7°C° 0,3 mm 4 m/s 748 mmHg 77%
    17:00 +7°C° 0,3 mm 4 m/s 748 mmHg 78%
    18:00 +6°C° 0,3 mm 4 m/s 748 mmHg 79%
    19:00 +6°C° 0,1 mm 4 m/s 749 mmHg 79%
    20:00 +6°C° 0,1 mm 4 m/s 749 mmHg 80%
    21:00 +6°C° 0,1 mm 4 m/s 749 mmHg 80%
    22:00 +6°C° 0,1 mm 4 m/s 749 mmHg 80%
    23:00 +6°C° 0,1 mm 4 m/s 749 mmHg 80%

    25 Fevereiro, Domingo

    Tempo Temperatura Precipitação Vento Pressão Humidade
    00:00 +5°C° 0,1 mm 4 m/s 749 mmHg 80%
    01:00 +5°C° 0,1 mm 3 m/s 748 mmHg 81%
    02:00 +5°C° 0,1 mm 3 m/s 748 mmHg 81%
    03:00 +5°C° 0,1 mm 3 m/s 748 mmHg 81%
    04:00 +5°C° 0,1 mm 3 m/s 748 mmHg 80%
    05:00 +6°C° 0,1 mm 2 m/s 748 mmHg 80%
    06:00 +6°C° 0,1 mm 2 m/s 748 mmHg 80%
    07:00 +7°C° 0,1 mm 2 m/s 748 mmHg 78%
    08:00 +8°C° 0,1 mm 2 m/s 748 mmHg 77%
    09:00 +9°C° 0,1 mm 2 m/s 748 mmHg 76%
    10:00 +9°C° 0,2 mm 2 m/s 748 mmHg 77%
    11:00 +9°C° 0,2 mm 2 m/s 747 mmHg 77%
    12:00 +10°C° 0,2 mm 2 m/s 747 mmHg 78%
    13:00 +9°C° 0,2 mm 3 m/s 747 mmHg 80%
    14:00 +9°C° 0,2 mm 3 m/s 747 mmHg 81%
    15:00 +9°C° 0,2 mm 3 m/s 747 mmHg 83%
    16:00 +7°C° 0,2 mm 4 m/s 747 mmHg 85%
    17:00 +6°C° 0,2 mm 4 m/s 747 mmHg 88%
    18:00 +5°C° 0,2 mm 5 m/s 747 mmHg 90%
    19:00 +4°C° 0,3 mm 6 m/s 748 mmHg 89%
    20:00 +3°C° 0,3 mm 6 m/s 748 mmHg 87%
    21:00 +3°C° 0,3 mm 7 m/s 749 mmHg 86%
    22:00 +2°C° 0,2 mm 7 m/s 749 mmHg 85%
    23:00 +2°C° 0,2 mm 7 m/s 750 mmHg 84%

    26 Fevereiro, Segunda-feira

    Tempo Temperatura Precipitação Vento Pressão Humidade
    00:00 0°C° 0,2 mm 7 m/s 750 mmHg 83%
    01:00 0°C° 0,1 mm 7 m/s 750 mmHg 83%
    02:00 +1°C° 0,1 mm 6 m/s 750 mmHg 83%
    03:00 -1°C° 0,1 mm 6 m/s 750 mmHg 83%
    04:00 -1°C° 0,1 mm 6 m/s 750 mmHg 83%
    05:00 -1°C° 0,1 mm 6 m/s 751 mmHg 82%
    06:00 -2°C° 0,1 mm 6 m/s 751 mmHg 82%
    07:00 -1°C° 0,1 mm 6 m/s 751 mmHg 80%
    08:00 -1°C° 0,1 mm 6 m/s 751 mmHg 77%
    09:00 0°C° 0,1 mm 7 m/s 751 mmHg 75%
    10:00 +1°C° 0,1 mm 6 m/s 751 mmHg 74%
    11:00 +1°C° 0,1 mm 6 m/s 751 mmHg 74%
    12:00 +1°C° 0,1 mm 6 m/s 751 mmHg 73%
    13:00 +1°C° 0,2 mm 6 m/s 751 mmHg 75%
    14:00 +1°C° 0,2 mm 5 m/s 751 mmHg 76%
    15:00 0°C° 0,2 mm 5 m/s 750 mmHg 78%
    16:00 0°C° 0,2 mm 5 m/s 751 mmHg 80%
    17:00 -1°C° 0,2 mm 5 m/s 751 mmHg 82%
    18:00 -2°C° 0,2 mm 4 m/s 751 mmHg 85%
    19:00 -2°C° 0,1 mm 4 m/s 751 mmHg 84%
    20:00 -2°C° 0,1 mm 4 m/s 751 mmHg 84%
    21:00 -2°C° 0,1 mm 5 m/s 751 mmHg 84%
    22:00 -2°C° 0,2 mm 5 m/s 751 mmHg 85%
    23:00 -2°C° 0,2 mm 5 m/s 751 mmHg 87%
    Mostrar mais